Time,TemperatureF,DewpointF,PressureIn,WindDirection,WindDirectionDegrees,WindSpeedMPH,WindSpeedGustMPH,Humidity,HourlyPrecipIn,Conditions,Clouds,dailyrainin,SoftwareType,DateUTC
2013-04-14 00:04:00,47.5,42.9,29.93,North,9,5.0,12.0,84,0.00,,,0.00,LWC V1.00 B64,2013-04-14 07:04:00,
2013-04-14 00:09:00,47.4,42.8,29.93,NNE,15,3.0,13.0,84,0.00,,,0.00,LWC V1.00 B64,2013-04-14 07:09:00,
2013-04-14 00:14:00,47.4,42.8,29.93,North,350,7.0,15.0,84,0.00,,,0.00,LWC V1.00 B64,2013-04-14 07:14:00,
2013-04-14 00:19:00,47.4,42.8,29.93,NNW,346,10.0,10.0,84,0.00,,,0.00,LWC V1.00 B64,2013-04-14 07:19:00,
2013-04-14 00:24:00,47.3,42.7,29.93,NNW,340,3.0,13.0,84,0.00,,,0.00,LWC V1.00 B64,2013-04-14 07:24:00,
2013-04-14 00:29:00,47.2,42.6,29.93,North,350,6.0,14.0,84,0.00,,,0.00,LWC V1.00 B64,2013-04-14 07:29:00,
2013-04-14 00:34:00,47.1,42.5,29.93,NNE,18,11.0,11.0,84,0.00,,,0.00,LWC V1.00 B64,2013-04-14 07:34:00,
2013-04-14 00:39:00,47.1,42.5,29.94,North,0,11.0,11.0,84,0.00,,,0.00,LWC V1.00 B64,2013-04-14 07:39:00,
2013-04-14 00:44:00,47.1,42.5,29.94,NNE,14,7.0,11.0,84,0.00,,,0.00,LWC V1.00 B64,2013-04-14 07:44:00,
2013-04-14 00:49:00,47.0,42.4,29.94,North,350,6.0,10.0,84,0.00,,,0.00,LWC V1.00 B64,2013-04-14 07:49:00,
2013-04-14 00:54:00,46.9,42.6,29.93,North,10,5.0,10.0,85,0.00,,,0.00,LWC V1.00 B64,2013-04-14 07:54:00,
2013-04-14 00:59:00,46.8,42.5,29.93,NNW,338,3.0,10.0,85,0.00,,,0.00,LWC V1.00 B64,2013-04-14 07:59:00,
2013-04-14 01:04:00,46.9,42.6,29.93,North,355,5.0,11.0,85,0.00,,,0.00,LWC V1.00 B64,2013-04-14 08:04:00,
2013-04-14 01:09:00,47.0,42.4,29.94,North,5,4.0,10.0,84,0.00,,,0.00,LWC V1.00 B64,2013-04-14 08:09:00,
2013-04-14 01:14:00,46.9,42.3,29.93,NNE,14,9.0,13.0,84,0.00,,,0.00,LWC V1.00 B64,2013-04-14 08:14:00,
2013-04-14 01:20:00,46.9,42.3,29.93,North,5,5.0,11.0,84,0.00,,,0.00,LWC V1.00 B64,2013-04-14 08:20:00,
2013-04-14 01:25:00,46.9,42.6,29.93,North,0,8.0,12.0,85,0.00,,,0.00,LWC V1.00 B64,2013-04-14 08:25:00,
2013-04-14 01:30:00,46.8,42.5,29.93,NNE,20,5.0,13.0,85,0.00,,,0.00,LWC V1.00 B64,2013-04-14 08:30:00,
2013-04-14 01:35:00,46.8,42.5,29.93,NNE,13,9.0,12.0,85,0.00,,,0.00,LWC V1.00 B64,2013-04-14 08:35:00,
2013-04-14 01:40:00,46.8,42.5,29.93,North,351,5.0,14.0,85,0.00,,,0.00,LWC V1.00 B64,2013-04-14 08:40:00,
2013-04-14 01:45:00,46.7,42.4,29.93,NNE,18,2.0,11.0,85,0.00,,,0.00,LWC V1.00 B64,2013-04-14 08:45:00,
2013-04-14 01:50:00,46.6,42.3,29.93,North,5,3.0,9.0,85,0.00,,,0.00,LWC V1.00 B64,2013-04-14 08:50:00,
2013-04-14 01:55:00,46.6,42.3,29.93,North,355,6.0,12.0,85,0.00,,,0.00,LWC V1.00 B64,2013-04-14 08:55:00,
2013-04-14 02:00:00,46.6,42.3,29.93,North,10,6.0,10.0,85,0.00,,,0.00,LWC V1.00 B64,2013-04-14 09:00:00,
2013-04-14 02:05:00,46.5,42.2,29.93,North,0,8.0,9.0,85,0.00,,,0.00,LWC V1.00 B64,2013-04-14 09:05:00,
2013-04-14 02:10:00,46.5,42.2,29.93,North,355,6.0,11.0,85,0.00,,,0.00,LWC V1.00 B64,2013-04-14 09:10:00,
2013-04-14 02:15:00,46.7,42.4,29.93,NNW,338,9.0,11.0,85,0.00,,,0.00,LWC V1.00 B64,2013-04-14 09:15:00,
2013-04-14 02:20:00,46.8,42.5,29.93,North,355,5.0,11.0,85,0.00,,,0.00,LWC V1.00 B64,2013-04-14 09:20:00,
2013-04-14 02:25:00,46.7,42.4,29.93,North,5,8.0,15.0,85,0.00,,,0.00,LWC V1.00 B64,2013-04-14 09:25:00,
2013-04-14 02:30:00,46.8,42.5,29.93,NNW,331,7.0,20.0,85,0.00,,,0.00,LWC V1.00 B64,2013-04-14 09:30:00,
2013-04-14 02:35:00,46.8,42.2,29.93,North,350,5.0,16.0,84,0.00,,,0.00,LWC V1.00 B64,2013-04-14 09:35:00,
2013-04-14 02:40:00,46.7,42.1,29.93,NNW,340,9.0,16.0,84,0.00,,,0.00,LWC V1.00 B64,2013-04-14 09:40:00,
2013-04-14 02:45:00,46.8,41.9,29.93,NNW,340,9.0,15.0,83,0.00,,,0.00,LWC V1.00 B64,2013-04-14 09:45:00,
2013-04-14 02:50:00,46.8,41.9,29.93,North,5,10.0,15.0,83,0.00,,,0.00,LWC V1.00 B64,2013-04-14 09:50:00,
2013-04-14 02:55:00,46.9,42.0,29.93,North,355,11.0,16.0,83,0.00,,,0.00,LWC V1.00 B64,2013-04-14 09:55:00,
2013-04-14 03:00:00,46.9,42.0,29.93,NNW,346,12.0,15.0,83,0.00,,,0.00,LWC V1.00 B64,2013-04-14 10:00:00,
2013-04-14 03:05:00,46.9,42.0,29.93,NNW,348,11.0,13.0,83,0.00,,,0.00,LWC V1.00 B64,2013-04-14 10:05:00,
2013-04-14 03:10:00,46.8,41.9,29.93,North,355,4.0,13.0,83,0.00,,,0.00,LWC V1.00 B64,2013-04-14 10:10:00,
2013-04-14 03:15:00,46.7,41.8,29.93,NNW,345,11.0,12.0,83,0.00,,,0.00,LWC V1.00 B64,2013-04-14 10:15:00,
2013-04-14 03:20:00,46.8,41.9,29.93,NNW,344,11.0,17.0,83,0.00,,,0.00,LWC V1.00 B64,2013-04-14 10:20:00,
2013-04-14 03:25:00,46.8,41.9,29.93,North,0,7.0,14.0,83,0.00,,,0.00,LWC V1.00 B64,2013-04-14 10:25:00,
2013-04-14 03:30:00,46.7,41.8,29.93,NNW,336,15.0,15.0,83,0.00,,,0.00,LWC V1.00 B64,2013-04-14 10:30:00,
2013-04-14 03:35:00,46.7,41.8,29.92,North,5,6.0,15.0,83,0.00,,,0.00,LWC V1.00 B64,2013-04-14 10:35:00,
2013-04-14 03:40:00,46.6,41.7,29.93,North,349,5.0,11.0,83,0.00,,,0.00,LWC V1.00 B64,2013-04-14 10:40:00,
2013-04-14 03:45:00,46.5,41.9,29.93,NNE,13,5.0,12.0,84,0.00,,,0.00,LWC V1.00 B64,2013-04-14 10:45:00,
2013-04-14 03:50:00,46.4,41.5,29.94,North,350,9.0,12.0,83,0.00,,,0.00,LWC V1.00 B64,2013-04-14 10:50:00,
2013-04-14 03:55:00,46.4,41.8,29.94,North,350,4.0,10.0,84,0.00,,,0.00,LWC V1.00 B64,2013-04-14 10:55:00,
2013-04-14 04:00:00,46.4,41.5,29.93,North,0,6.0,12.0,83,0.00,,,0.00,LWC V1.00 B64,2013-04-14 11:00:00,
2013-04-14 04:05:00,46.5,41.6,29.93,North,0,4.0,11.0,83,0.00,,,0.00,LWC V1.00 B64,2013-04-14 11:05:00,
2013-04-14 04:10:00,46.4,41.2,29.93,NNW,346,6.0,7.0,82,0.00,,,0.00,LWC V1.00 B64,2013-04-14 11:10:00,
2013-04-14 04:15:00,46.4,41.5,29.93,North,355,9.0,15.0,83,0.00,,,0.00,LWC V1.00 B64,2013-04-14 11:15:00,
2013-04-14 04:20:00,46.4,41.2,29.93,North,355,6.0,12.0,82,0.00,,,0.00,LWC V1.00 B64,2013-04-14 11:20:00,
2013-04-14 04:25:00,46.5,41.3,29.94,NNW,348,8.0,10.0,82,0.00,,,0.00,LWC V1.00 B64,2013-04-14 11:25:00,
2013-04-14 04:30:00,46.5,41.3,29.94,North,0,4.0,6.0,82,0.00,,,0.00,LWC V1.00 B64,2013-04-14 11:30:00,
2013-04-14 04:35:00,46.5,41.0,29.94,North,5,11.0,11.0,81,0.00,,,0.00,LWC V1.00 B64,2013-04-14 11:35:00,
2013-04-14 04:40:00,46.4,40.9,29.93,North,355,2.0,12.0,81,0.00,,,0.00,LWC V1.00 B64,2013-04-14 11:40:00,
2013-04-14 04:45:00,46.5,41.0,29.93,North,9,1.0,12.0,81,0.00,,,0.00,LWC V1.00 B64,2013-04-14 11:45:00,
2013-04-14 04:50:00,46.4,40.9,29.93,North,9,9.0,9.0,81,0.00,,,0.00,LWC V1.00 B64,2013-04-14 11:50:00,
2013-04-14 04:55:00,46.5,41.0,29.93,North,0,7.0,11.0,81,0.00,,,0.00,LWC V1.00 B64,2013-04-14 11:55:00,
2013-04-14 05:00:00,46.5,41.0,29.93,NNW,343,5.0,12.0,81,0.00,,,0.00,LWC V1.00 B64,2013-04-14 12:00:00,
2013-04-14 05:05:00,46.6,41.1,29.93,North,5,5.0,14.0,81,0.00,,,0.00,LWC V1.00 B64,2013-04-14 12:05:00,
2013-04-14 05:10:00,46.6,41.4,29.93,NNW,328,11.0,14.0,82,0.00,,,0.00,LWC V1.00 B64,2013-04-14 12:10:00,
2013-04-14 05:15:00,46.7,41.5,29.93,NNW,344,6.0,9.0,82,0.00,,,0.00,LWC V1.00 B64,2013-04-14 12:15:00,
2013-04-14 05:20:00,46.8,41.3,29.93,North,349,9.0,12.0,81,0.00,,,0.00,LWC V1.00 B64,2013-04-14 12:20:00,
2013-04-14 05:25:00,46.9,41.4,29.93,North,350,4.0,12.0,81,0.00,,,0.00,LWC V1.00 B64,2013-04-14 12:25:00,
2013-04-14 05:30:00,46.8,41.3,29.93,North,0,7.0,14.0,81,0.00,,,0.00,LWC V1.00 B64,2013-04-14 12:30:00,
2013-04-14 05:35:00,46.5,40.7,29.93,NNW,337,2.0,10.0,80,0.00,,,0.00,LWC V1.00 B64,2013-04-14 12:35:00,
2013-04-14 05:40:00,46.3,40.8,29.92,NNW,342,2.0,9.0,81,0.00,,,0.00,LWC V1.00 B64,2013-04-14 12:40:00,
2013-04-14 05:45:00,46.2,40.4,29.92,NNW,342,4.0,8.0,80,0.00,,,0.00,LWC V1.00 B64,2013-04-14 12:45:00,
2013-04-14 05:50:00,46.1,40.3,29.92,North,0,4.0,10.0,80,0.00,,,0.00,LWC V1.00 B64,2013-04-14 12:50:00,
2013-04-14 05:55:00,46.2,40.4,29.92,NNW,343,4.0,14.0,80,0.00,,,0.00,LWC V1.00 B64,2013-04-14 12:55:00,
2013-04-14 06:00:00,46.2,40.4,29.92,North,0,7.0,14.0,80,0.00,,,0.00,LWC V1.00 B64,2013-04-14 13:00:00,
2013-04-14 06:05:00,46.2,40.4,29.92,North,355,4.0,11.0,80,0.00,,,0.00,LWC V1.00 B64,2013-04-14 13:05:00,
2013-04-14 06:10:00,46.2,40.4,29.92,North,349,5.0,14.0,80,0.00,,,0.00,LWC V1.00 B64,2013-04-14 13:10:00,
2013-04-14 06:15:00,46.1,40.3,29.92,North,351,4.0,12.0,80,0.00,,,0.00,LWC V1.00 B64,2013-04-14 13:15:00,
2013-04-14 06:20:00,46.2,40.4,29.92,North,355,11.0,14.0,80,0.00,,,0.00,LWC V1.00 B64,2013-04-14 13:20:00,
2013-04-14 06:25:00,46.2,40.4,29.92,North,5,6.0,14.0,80,0.00,,,0.00,LWC V1.00 B64,2013-04-14 13:25:00,
2013-04-14 06:30:00,46.1,40.3,29.92,North,350,7.0,10.0,80,0.00,,,0.00,LWC V1.00 B64,2013-04-14 13:30:00,
2013-04-14 06:35:00,46.0,40.2,29.93,North,5,9.0,12.0,80,0.00,,,0.00,LWC V1.00 B64,2013-04-14 13:35:00,
2013-04-14 06:40:00,46.0,40.2,29.93,North,5,5.0,7.0,80,0.00,,,0.00,LWC V1.00 B64,2013-04-14 13:40:00,
2013-04-14 06:45:00,45.9,39.8,29.93,North,355,6.0,7.0,79,0.00,,,0.00,LWC V1.00 B64,2013-04-14 13:45:00,
2013-04-14 06:50:00,46.0,39.9,29.92,North,5,7.0,7.0,79,0.00,,,0.00,LWC V1.00 B64,2013-04-14 13:50:00,
2013-04-14 06:55:00,45.9,39.8,29.93,NNW,341,5.0,9.0,79,0.00,,,0.00,LWC V1.00 B64,2013-04-14 13:55:00,
2013-04-14 07:00:00,46.0,39.9,29.93,North,350,7.0,10.0,79,0.00,,,0.00,LWC V1.00 B64,2013-04-14 14:00:00,
2013-04-14 07:05:00,46.1,40.3,29.93,North,0,5.0,12.0,80,0.00,,,0.00,LWC V1.00 B64,2013-04-14 14:05:00,
2013-04-14 07:10:00,46.3,40.5,29.93,North,5,7.0,11.0,80,0.00,,,0.00,LWC V1.00 B64,2013-04-14 14:10:00,
2013-04-14 07:15:00,46.4,40.6,29.93,North,11,9.0,13.0,80,0.00,,,0.00,LWC V1.00 B64,2013-04-14 14:15:00,
2013-04-14 07:20:00,46.5,40.7,29.93,NNW,341,10.0,15.0,80,0.00,,,0.00,LWC V1.00 B64,2013-04-14 14:20:00,
2013-04-14 07:25:00,46.7,40.5,29.93,NNW,333,9.0,15.0,79,0.00,,,0.00,LWC V1.00 B64,2013-04-14 14:25:00,
2013-04-14 07:30:00,46.8,40.6,29.93,North,355,5.0,15.0,79,0.00,,,0.00,LWC V1.00 B64,2013-04-14 14:30:00,
2013-04-14 07:35:00,47.0,40.8,29.94,NNW,342,9.0,11.0,79,0.00,,,0.00,LWC V1.00 B64,2013-04-14 14:35:00,
2013-04-14 07:40:00,47.2,40.7,29.93,NNE,13,8.0,9.0,78,0.00,,,0.00,LWC V1.00 B64,2013-04-14 14:40:00,
2013-04-14 07:45:00,47.5,41.0,29.94,North,11,5.0,10.0,78,0.00,,,0.00,LWC V1.00 B64,2013-04-14 14:45:00,
2013-04-14 07:50:00,47.7,40.8,29.94,North,5,6.0,10.0,77,0.00,,,0.00,LWC V1.00 B64,2013-04-14 14:50:00,
2013-04-14 07:55:00,47.9,40.7,29.94,North,350,6.0,14.0,76,0.00,,,0.00,LWC V1.00 B64,2013-04-14 14:55:00,
2013-04-14 08:00:00,48.1,40.6,29.94,NNW,348,3.0,9.0,75,0.00,,,0.00,LWC V1.00 B64,2013-04-14 15:00:00,
2013-04-14 08:05:00,48.3,40.7,29.94,North,9,5.0,11.0,75,0.00,,,0.00,LWC V1.00 B64,2013-04-14 15:05:00,
2013-04-14 08:10:00,48.4,41.2,29.94,North,5,10.0,13.0,76,0.00,,,0.00,LWC V1.00 B64,2013-04-14 15:10:00,
2013-04-14 08:15:00,48.6,41.4,29.95,North,349,5.0,16.0,76,0.00,,,0.00,LWC V1.00 B64,2013-04-14 15:15:00,
2013-04-14 08:20:00,48.7,41.5,29.94,North,0,10.0,12.0,76,0.00,,,0.00,LWC V1.00 B64,2013-04-14 15:20:00,
2013-04-14 08:25:00,49.0,42.1,29.94,North,9,4.0,12.0,77,0.00,,,0.00,LWC V1.00 B64,2013-04-14 15:25:00,
2013-04-14 08:30:00,49.2,41.6,29.95,North,355,7.0,11.0,75,0.00,,,0.00,LWC V1.00 B64,2013-04-14 15:30:00,
2013-04-14 08:35:00,49.4,41.8,29.94,NW,325,6.0,10.0,75,0.00,,,0.00,LWC V1.00 B64,2013-04-14 15:35:00,
2013-04-14 08:40:00,49.9,42.3,29.95,North,9,6.0,11.0,75,0.00,,,0.00,LWC V1.00 B64,2013-04-14 15:40:00,
2013-04-14 08:45:00,50.0,42.7,29.95,North,0,7.0,14.0,76,0.00,,,0.00,LWC V1.00 B64,2013-04-14 15:45:00,
2013-04-14 08:50:00,50.1,42.1,29.95,North,350,6.0,14.0,74,0.00,,,0.00,LWC V1.00 B64,2013-04-14 15:50:00,
2013-04-14 08:55:00,50.4,42.8,29.95,North,0,7.0,11.0,75,0.00,,,0.00,LWC V1.00 B64,2013-04-14 15:55:00,
2013-04-14 09:00:00,50.8,42.8,29.95,North,349,6.0,10.0,74,0.00,,,0.00,LWC V1.00 B64,2013-04-14 16:00:00,
2013-04-14 09:05:00,50.9,42.6,29.95,North,11,9.0,14.0,73,0.00,,,0.00,LWC V1.00 B64,2013-04-14 16:05:00,
2013-04-14 09:10:00,50.9,42.6,29.96,NNW,344,5.0,12.0,73,0.00,,,0.00,LWC V1.00 B64,2013-04-14 16:10:00,
2013-04-14 09:15:00,50.9,42.2,29.96,North,355,10.0,16.0,72,0.00,,,0.00,LWC V1.00 B64,2013-04-14 16:15:00,
2013-04-14 09:20:00,50.9,41.8,29.96,NNW,334,9.0,18.0,71,0.00,,,0.00,LWC V1.00 B64,2013-04-14 16:20:00,
2013-04-14 09:25:00,50.9,42.2,29.96,North,0,11.0,15.0,72,0.00,,,0.00,LWC V1.00 B64,2013-04-14 16:25:00,
2013-04-14 09:30:00,51.4,42.7,29.96,North,355,10.0,14.0,72,0.00,,,0.00,LWC V1.00 B64,2013-04-14 16:30:00,
2013-04-14 09:35:00,51.5,42.8,29.96,NNW,330,6.0,16.0,72,0.00,,,0.00,LWC V1.00 B64,2013-04-14 16:35:00,
2013-04-14 09:40:00,51.4,41.9,29.96,NNW,332,14.0,18.0,70,0.00,,,0.00,LWC V1.00 B64,2013-04-14 16:40:00,
2013-04-14 09:45:00,51.3,41.9,29.96,NNW,347,10.0,12.0,70,0.00,,,0.00,LWC V1.00 B64,2013-04-14 16:45:00,
2013-04-14 09:50:00,51.5,42.0,29.96,North,0,6.0,15.0,70,0.00,,,0.00,LWC V1.00 B64,2013-04-14 16:50:00,
2013-04-14 09:55:00,52.2,42.7,29.96,North,355,10.0,17.0,70,0.00,,,0.00,LWC V1.00 B64,2013-04-14 16:55:00,
2013-04-14 10:00:00,52.6,42.7,29.96,NNE,25,11.0,15.0,69,0.00,,,0.00,LWC V1.00 B64,2013-04-14 17:00:00,
2013-04-14 10:05:00,52.9,43.4,29.96,NNW,341,6.0,11.0,70,0.00,,,0.00,LWC V1.00 B64,2013-04-14 17:05:00,
2013-04-14 10:10:00,53.0,42.7,29.96,NNW,342,4.0,13.0,68,0.00,,,0.00,LWC V1.00 B64,2013-04-14 17:10:00,
2013-04-14 10:15:00,53.0,43.5,29.96,North,350,6.0,18.0,70,0.00,,,0.00,LWC V1.00 B64,2013-04-14 17:15:00,
2013-04-14 10:20:00,52.9,43.0,29.96,North,5,12.0,15.0,69,0.00,,,0.00,LWC V1.00 B64,2013-04-14 17:20:00,
2013-04-14 10:25:00,53.1,43.6,29.96,North,5,10.0,16.0,70,0.00,,,0.00,LWC V1.00 B64,2013-04-14 17:25:00,
2013-04-14 10:30:00,53.4,43.9,29.96,NNW,336,7.0,14.0,70,0.00,,,0.00,LWC V1.00 B64,2013-04-14 17:30:00,
2013-04-14 10:35:00,53.3,43.4,29.96,NNW,346,9.0,16.0,69,0.00,,,0.00,LWC V1.00 B64,2013-04-14 17:35:00,
2013-04-14 10:40:00,53.5,44.0,29.96,North,355,11.0,16.0,70,0.00,,,0.00,LWC V1.00 B64,2013-04-14 17:40:00,
2013-04-14 10:45:00,53.9,44.3,29.96,NNW,333,11.0,19.0,70,0.00,,,0.00,LWC V1.00 B64,2013-04-14 17:45:00,
2013-04-14 10:50:00,53.7,44.2,29.96,North,0,13.0,17.0,70,0.00,,,0.00,LWC V1.00 B64,2013-04-14 17:50:00,
2013-04-14 10:55:00,53.9,44.0,29.96,North,5,16.0,17.0,69,0.00,,,0.00,LWC V1.00 B64,2013-04-14 17:55:00,
2013-04-14 11:00:00,54.1,45.3,29.96,North,0,13.0,18.0,72,0.00,,,0.00,LWC V1.00 B64,2013-04-14 18:00:00,
2013-04-14 11:05:00,54.6,44.6,29.96,NNW,341,0.0,12.0,69,0.00,,,0.00,LWC V1.00 B64,2013-04-14 18:05:00,
2013-04-14 11:10:00,55.1,45.1,29.96,NW,323,10.0,13.0,69,0.00,,,0.00,LWC V1.00 B64,2013-04-14 18:10:00,
2013-04-14 11:15:00,54.9,45.3,29.96,North,351,5.0,13.0,70,0.00,,,0.00,LWC V1.00 B64,2013-04-14 18:15:00,
2013-04-14 11:20:00,55.3,46.1,29.96,North,5,10.0,16.0,71,0.00,,,0.00,LWC V1.00 B64,2013-04-14 18:20:00,
2013-04-14 11:25:00,55.8,45.4,29.96,North,5,4.0,13.0,68,0.00,,,0.00,LWC V1.00 B64,2013-04-14 18:25:00,
2013-04-14 11:30:00,56.3,46.3,29.95,North,355,12.0,12.0,69,0.00,,,0.00,LWC V1.00 B64,2013-04-14 18:30:00,
2013-04-14 11:35:00,55.8,45.0,29.95,North,350,9.0,12.0,67,0.00,,,0.00,LWC V1.00 B64,2013-04-14 18:35:00,
2013-04-14 11:40:00,55.4,45.8,29.95,North,0,9.0,13.0,70,0.00,,,0.00,LWC V1.00 B64,2013-04-14 18:40:00,
2013-04-14 11:45:00,55.6,45.2,29.95,NNW,345,4.0,16.0,68,0.00,,,0.00,LWC V1.00 B64,2013-04-14 18:45:00,
2013-04-14 11:50:00,56.0,45.2,29.95,North,9,11.0,12.0,67,0.00,,,0.00,LWC V1.00 B64,2013-04-14 18:50:00,
2013-04-14 11:56:00,55.8,45.0,29.95,North,355,10.0,16.0,67,0.00,,,0.00,LWC V1.00 B64,2013-04-14 18:56:00,
2013-04-14 12:01:00,55.9,45.1,29.95,North,355,14.0,16.0,67,0.00,,,0.00,LWC V1.00 B64,2013-04-14 19:01:00,
2013-04-14 12:07:00,56.4,46.0,29.95,NW,322,12.0,15.0,68,0.00,,,0.00,LWC V1.00 B64,2013-04-14 19:07:00,
2013-04-14 12:12:00,56.0,44.8,29.95,North,355,20.0,20.0,66,0.00,,,0.00,LWC V1.00 B64,2013-04-14 19:12:00,
2013-04-14 12:17:00,55.9,44.7,29.95,North,5,11.0,17.0,66,0.00,,,0.00,LWC V1.00 B64,2013-04-14 19:17:00,
2013-04-14 12:23:00,55.9,45.5,29.95,NNW,330,12.0,19.0,68,0.00,,,0.00,LWC V1.00 B64,2013-04-14 19:23:00,
2013-04-14 12:28:00,55.8,45.0,29.95,NNW,346,14.0,18.0,67,0.00,,,0.00,LWC V1.00 B64,2013-04-14 19:28:00,
2013-04-14 12:33:00,55.2,44.0,29.95,North,0,16.0,20.0,66,0.00,,,0.00,LWC V1.00 B64,2013-04-14 19:33:00,
2013-04-14 12:38:00,55.1,45.1,29.95,NNE,13,15.0,17.0,69,0.00,,,0.00,LWC V1.00 B64,2013-04-14 19:38:00,
2013-04-14 12:43:00,55.0,44.6,29.96,NNE,14,11.0,18.0,68,0.00,,,0.00,LWC V1.00 B64,2013-04-14 19:43:00,
2013-04-14 12:48:00,55.0,44.6,29.95,North,5,20.0,20.0,68,0.00,,,0.00,LWC V1.00 B64,2013-04-14 19:48:00,
2013-04-14 12:53:00,54.7,44.7,29.95,NNW,336,10.0,22.0,69,0.00,,,0.00,LWC V1.00 B64,2013-04-14 19:53:00,
2013-04-14 12:58:00,54.6,44.3,29.95,NNW,341,8.0,18.0,68,0.00,,,0.00,LWC V1.00 B64,2013-04-14 19:58:00,
2013-04-14 13:03:00,55.5,45.9,29.95,NNW,346,8.0,14.0,70,0.00,,,0.00,LWC V1.00 B64,2013-04-14 20:03:00,
2013-04-14 13:08:00,54.9,44.9,29.95,North,0,17.0,25.0,69,0.00,,,0.00,LWC V1.00 B64,2013-04-14 20:08:00,
2013-04-14 13:13:00,54.8,44.4,29.95,North,0,11.0,19.0,68,0.00,,,0.00,LWC V1.00 B64,2013-04-14 20:13:00,
2013-04-14 13:18:00,55.1,44.3,29.95,North,355,10.0,24.0,67,0.00,,,0.00,LWC V1.00 B64,2013-04-14 20:18:00,
2013-04-14 13:23:00,55.0,44.6,29.94,North,0,16.0,20.0,68,0.00,,,0.00,LWC V1.00 B64,2013-04-14 20:23:00,
2013-04-14 13:28:00,55.0,45.4,29.94,North,0,6.0,15.0,70,0.00,,,0.00,LWC V1.00 B64,2013-04-14 20:28:00,
2013-04-14 13:33:00,55.5,44.7,29.94,North,0,11.0,20.0,67,0.00,,,0.00,LWC V1.00 B64,2013-04-14 20:33:00,
2013-04-14 13:38:00,55.3,44.5,29.94,NNW,343,11.0,20.0,67,0.00,,,0.00,LWC V1.00 B64,2013-04-14 20:38:00,
2013-04-14 13:43:00,54.7,44.3,29.94,North,349,17.0,21.0,68,0.00,,,0.00,LWC V1.00 B64,2013-04-14 20:43:00,
2013-04-14 13:48:00,54.5,45.3,29.94,NNE,19,12.0,22.0,71,0.00,,,0.00,LWC V1.00 B64,2013-04-14 20:48:00,
2013-04-14 13:53:00,54.9,44.9,29.94,North,5,20.0,20.0,69,0.00,,,0.00,LWC V1.00 B64,2013-04-14 20:53:00,
2013-04-14 13:58:00,54.6,43.9,29.94,North,355,22.0,23.0,67,0.00,,,0.00,LWC V1.00 B64,2013-04-14 20:58:00,
2013-04-14 14:03:00,54.6,44.3,29.94,NNW,346,5.0,22.0,68,0.00,,,0.00,LWC V1.00 B64,2013-04-14 21:03:00,
2013-04-14 14:08:00,55.1,45.1,29.94,NNW,329,15.0,19.0,69,0.00,,,0.00,LWC V1.00 B64,2013-04-14 21:08:00,
2013-04-14 14:13:00,54.7,44.7,29.93,NNW,341,15.0,28.0,69,0.00,,,0.00,LWC V1.00 B64,2013-04-14 21:13:00,
2013-04-14 14:18:00,54.4,44.4,29.94,NNW,341,15.0,25.0,69,0.00,,,0.00,LWC V1.00 B64,2013-04-14 21:18:00,
2013-04-14 14:23:00,54.2,44.3,29.94,NNE,28,17.0,26.0,69,0.00,,,0.00,LWC V1.00 B64,2013-04-14 21:23:00,
2013-04-14 14:28:00,54.6,44.6,29.94,NNW,346,11.0,25.0,69,0.00,,,0.00,LWC V1.00 B64,2013-04-14 21:28:00,
2013-04-14 14:33:00,54.4,44.4,29.94,North,355,21.0,25.0,69,0.00,,,0.00,LWC V1.00 B64,2013-04-14 21:33:00,
2013-04-14 14:38:00,54.4,44.1,29.94,NNW,344,14.0,24.0,68,0.00,,,0.00,LWC V1.00 B64,2013-04-14 21:38:00,
2013-04-14 14:43:00,54.6,43.5,29.94,NNW,327,18.0,23.0,66,0.00,,,0.00,LWC V1.00 B64,2013-04-14 21:43:00,
2013-04-14 14:48:00,54.7,45.1,29.94,NNW,342,20.0,23.0,70,0.00,,,0.00,LWC V1.00 B64,2013-04-14 21:48:00,
2013-04-14 14:53:00,54.5,44.2,29.93,NNW,331,16.0,24.0,68,0.00,,,0.00,LWC V1.00 B64,2013-04-14 21:53:00,
2013-04-14 14:59:00,54.8,44.4,29.92,NE,36,9.0,24.0,68,0.00,,,0.00,LWC V1.00 B64,2013-04-14 21:59:00,
2013-04-14 15:04:00,55.0,44.2,29.93,North,350,16.0,24.0,67,0.00,,,0.00,LWC V1.00 B64,2013-04-14 22:04:00,
2013-04-14 15:09:00,54.7,44.0,29.92,NNW,344,19.0,23.0,67,0.00,,,0.00,LWC V1.00 B64,2013-04-14 22:09:00,
2013-04-14 15:14:00,54.4,44.4,29.93,North,355,17.0,24.0,69,0.00,,,0.00,LWC V1.00 B64,2013-04-14 22:14:00,
2013-04-14 15:19:00,54.4,44.8,29.93,North,5,15.0,26.0,70,0.00,,,0.00,LWC V1.00 B64,2013-04-14 22:19:00,
2013-04-14 15:24:00,54.4,45.2,29.94,NNW,341,9.0,21.0,71,0.00,,,0.00,LWC V1.00 B64,2013-04-14 22:24:00,
2013-04-14 15:29:00,54.3,44.3,29.93,NW,324,18.0,27.0,69,0.00,,,0.00,LWC V1.00 B64,2013-04-14 22:29:00,
2013-04-14 15:34:00,53.5,44.0,29.93,North,0,18.0,27.0,70,0.00,,,0.00,LWC V1.00 B64,2013-04-14 22:34:00,
2013-04-14 15:40:00,53.3,44.9,29.93,NW,326,13.0,20.0,73,0.00,,,0.00,LWC V1.00 B64,2013-04-14 22:40:00,
2013-04-14 15:45:00,53.3,44.1,29.93,NW,325,12.0,25.0,71,0.00,,,0.00,LWC V1.00 B64,2013-04-14 22:45:00,
2013-04-14 15:50:00,53.5,44.3,29.92,NNW,338,13.0,24.0,71,0.00,,,0.00,LWC V1.00 B64,2013-04-14 22:50:00,
2013-04-14 15:55:00,53.4,44.2,29.92,NW,313,11.0,23.0,71,0.00,,,0.00,LWC V1.00 B64,2013-04-14 22:55:00,
2013-04-14 16:00:00,53.4,44.6,29.93,NNE,17,16.0,20.0,72,0.00,,,0.00,LWC V1.00 B64,2013-04-14 23:00:00,
2013-04-14 16:05:00,53.2,44.8,29.93,NNW,341,18.0,27.0,73,0.00,,,0.00,LWC V1.00 B64,2013-04-14 23:05:00,
2013-04-14 16:10:00,53.1,44.7,29.93,NNE,13,18.0,24.0,73,0.00,,,0.00,LWC V1.00 B64,2013-04-14 23:10:00,
2013-04-14 16:15:00,53.0,44.6,29.92,WNW,298,16.0,22.0,73,0.00,,,0.00,LWC V1.00 B64,2013-04-14 23:15:00,
2013-04-14 16:20:00,53.0,44.9,29.92,NNW,344,7.0,19.0,74,0.00,,,0.00,LWC V1.00 B64,2013-04-14 23:20:00,
2013-04-14 16:25:00,53.4,45.0,29.92,North,0,9.0,20.0,73,0.00,,,0.00,LWC V1.00 B64,2013-04-14 23:25:00,
2013-04-14 16:30:00,53.9,45.1,29.92,NNW,340,14.0,20.0,72,0.00,,,0.00,LWC V1.00 B64,2013-04-14 23:30:00,
2013-04-14 16:35:00,53.8,45.0,29.93,North,355,15.0,21.0,72,0.00,,,0.00,LWC V1.00 B64,2013-04-14 23:35:00,
2013-04-14 16:40:00,53.7,45.3,29.93,NW,310,12.0,20.0,73,0.00,,,0.00,LWC V1.00 B64,2013-04-14 23:40:00,
2013-04-14 16:45:00,53.2,44.8,29.92,North,11,14.0,25.0,73,0.00,,,0.00,LWC V1.00 B64,2013-04-14 23:45:00,
2013-04-14 16:50:00,53.1,45.0,29.92,WNW,292,5.0,21.0,74,0.00,,,0.00,LWC V1.00 B64,2013-04-14 23:50:00,
2013-04-14 16:55:00,53.0,45.3,29.92,North,0,18.0,19.0,75,0.00,,,0.00,LWC V1.00 B64,2013-04-14 23:55:00,
2013-04-14 17:00:00,52.8,44.7,29.92,North,0,4.0,14.0,74,0.00,,,0.00,LWC V1.00 B64,2013-04-15 00:00:00,
2013-04-14 17:05:00,53.4,46.0,29.92,NNW,344,10.0,11.0,76,0.00,,,0.00,LWC V1.00 B64,2013-04-15 00:05:00,
2013-04-14 17:10:00,53.1,45.4,29.92,North,0,12.0,18.0,75,0.00,,,0.00,LWC V1.00 B64,2013-04-15 00:10:00,
2013-04-14 17:15:00,52.8,45.1,29.92,NNW,344,4.0,20.0,75,0.00,,,0.00,LWC V1.00 B64,2013-04-15 00:15:00,
2013-04-14 17:20:00,52.7,45.3,29.93,NNE,17,11.0,18.0,76,0.00,,,0.00,LWC V1.00 B64,2013-04-15 00:20:00,
2013-04-14 17:25:00,52.5,45.2,29.92,NNW,327,10.0,17.0,76,0.00,,,0.00,LWC V1.00 B64,2013-04-15 00:25:00,
2013-04-14 17:30:00,52.3,44.6,29.93,North,349,5.0,17.0,75,0.00,,,0.00,LWC V1.00 B64,2013-04-15 00:30:00,
2013-04-14 17:35:00,52.3,44.6,29.93,North,5,13.0,19.0,75,0.00,,,0.00,LWC V1.00 B64,2013-04-15 00:35:00,
2013-04-14 17:40:00,52.2,45.2,29.93,North,350,10.0,16.0,77,0.00,,,0.00,LWC V1.00 B64,2013-04-15 00:40:00,
2013-04-14 17:45:00,52.0,45.0,29.93,NNE,13,7.0,17.0,77,0.00,,,0.00,LWC V1.00 B64,2013-04-15 00:45:00,
2013-04-14 17:50:00,51.8,44.8,29.93,North,355,16.0,20.0,77,0.00,,,0.00,LWC V1.00 B64,2013-04-15 00:50:00,
2013-04-14 17:55:00,51.5,44.9,29.93,NNW,343,15.0,17.0,78,0.00,,,0.00,LWC V1.00 B64,2013-04-15 00:55:00,
2013-04-14 18:00:00,51.2,44.6,29.93,North,0,5.0,18.0,78,0.00,,,0.00,LWC V1.00 B64,2013-04-15 01:00:00,
2013-04-14 18:05:00,51.7,45.1,29.93,NNW,348,9.0,17.0,78,0.00,,,0.00,LWC V1.00 B64,2013-04-15 01:05:00,
2013-04-14 18:10:00,51.6,45.0,29.93,North,0,8.0,11.0,78,0.00,,,0.00,LWC V1.00 B64,2013-04-15 01:10:00,
2013-04-14 18:15:00,51.4,44.8,29.93,North,0,6.0,16.0,78,0.00,,,0.00,LWC V1.00 B64,2013-04-15 01:15:00,
2013-04-14 18:20:00,51.5,45.2,29.93,North,5,5.0,16.0,79,0.00,,,0.00,LWC V1.00 B64,2013-04-15 01:20:00,
2013-04-14 18:25:00,51.1,44.5,29.93,North,5,10.0,14.0,78,0.00,,,0.00,LWC V1.00 B64,2013-04-15 01:25:00,
2013-04-14 18:30:00,51.1,44.1,29.92,NNW,329,9.0,14.0,77,0.00,,,0.00,LWC V1.00 B64,2013-04-15 01:30:00,
2013-04-14 18:35:00,51.2,43.9,29.93,North,351,9.0,19.0,76,0.00,,,0.00,LWC V1.00 B64,2013-04-15 01:35:00,
2013-04-14 18:40:00,50.8,43.9,29.93,NNE,13,4.0,12.0,77,0.00,,,0.00,LWC V1.00 B64,2013-04-15 01:40:00,
2013-04-14 18:45:00,50.7,43.8,29.92,North,5,5.0,13.0,77,0.00,,,0.00,LWC V1.00 B64,2013-04-15 01:45:00,
2013-04-14 18:50:00,50.5,43.9,29.92,North,9,3.0,12.0,78,0.00,,,0.00,LWC V1.00 B64,2013-04-15 01:50:00,
2013-04-14 18:55:00,50.5,44.2,29.92,NNW,345,5.0,13.0,79,0.00,,,0.00,LWC V1.00 B64,2013-04-15 01:55:00,
2013-04-14 19:00:00,50.4,44.1,29.92,NNW,344,9.0,17.0,79,0.00,,,0.00,LWC V1.00 B64,2013-04-15 02:00:00,
2013-04-14 19:05:00,50.3,44.0,29.92,North,355,4.0,10.0,79,0.00,,,0.00,LWC V1.00 B64,2013-04-15 02:05:00,
2013-04-14 19:10:00,50.3,43.7,29.92,NNW,333,4.0,16.0,78,0.00,,,0.00,LWC V1.00 B64,2013-04-15 02:10:00,
2013-04-14 19:15:00,50.1,43.5,29.92,North,355,10.0,18.0,78,0.00,,,0.00,LWC V1.00 B64,2013-04-15 02:15:00,
2013-04-14 19:20:00,49.8,43.2,29.92,North,9,5.0,10.0,78,0.00,,,0.00,LWC V1.00 B64,2013-04-15 02:20:00,
2013-04-14 19:25:00,49.6,43.4,29.92,North,350,8.0,17.0,79,0.00,,,0.00,LWC V1.00 B64,2013-04-15 02:25:00,
2013-04-14 19:30:00,49.3,43.1,29.92,NNW,338,10.0,15.0,79,0.00,,,0.00,LWC V1.00 B64,2013-04-15 02:30:00,
2013-04-14 19:35:00,49.0,43.1,29.92,NNW,336,7.0,17.0,80,0.00,,,0.00,LWC V1.00 B64,2013-04-15 02:35:00,
2013-04-14 19:40:00,48.8,43.2,29.91,North,0,6.0,14.0,81,0.00,,,0.00,LWC V1.00 B64,2013-04-15 02:40:00,
2013-04-14 19:45:00,48.6,43.0,29.91,North,355,10.0,14.0,81,0.00,,,0.00,LWC V1.00 B64,2013-04-15 02:45:00,
2013-04-14 19:50:00,48.6,43.4,29.91,North,350,5.0,11.0,82,0.00,,,0.00,LWC V1.00 B64,2013-04-15 02:50:00,
2013-04-14 19:55:00,48.5,43.3,29.91,NNE,19,8.0,12.0,82,0.00,,,0.00,LWC V1.00 B64,2013-04-15 02:55:00,
2013-04-14 20:00:00,48.4,43.5,29.92,NNW,329,2.0,11.0,83,0.00,,,0.00,LWC V1.00 B64,2013-04-15 03:00:00,
2013-04-14 20:05:00,48.4,43.5,29.92,North,350,0.0,9.0,83,0.00,,,0.00,LWC V1.00 B64,2013-04-15 03:05:00,
2013-04-14 20:10:00,48.3,43.7,29.92,NNW,346,4.0,7.0,84,0.00,,,0.00,LWC V1.00 B64,2013-04-15 03:10:00,
2013-04-14 20:15:00,48.3,44.0,29.92,North,0,7.0,11.0,85,0.00,,,0.00,LWC V1.00 B64,2013-04-15 03:15:00,
2013-04-14 20:20:00,48.2,43.9,29.91,NNW,348,6.0,7.0,85,0.00,,,0.00,LWC V1.00 B64,2013-04-15 03:20:00,
2013-04-14 20:25:00,48.2,43.9,29.92,North,355,6.0,10.0,85,0.00,,,0.00,LWC V1.00 B64,2013-04-15 03:25:00,
2013-04-14 20:30:00,48.1,43.8,29.91,North,5,5.0,7.0,85,0.00,,,0.00,LWC V1.00 B64,2013-04-15 03:30:00,
2013-04-14 20:36:00,48.2,43.9,29.91,North,9,3.0,8.0,85,0.00,,,0.00,LWC V1.00 B64,2013-04-15 03:36:00,
2013-04-14 20:41:00,48.2,43.9,29.91,North,11,1.0,3.0,85,0.00,,,0.00,LWC V1.00 B64,2013-04-15 03:41:00,
2013-04-14 20:46:00,48.2,43.9,29.91,North,0,4.0,6.0,85,0.00,,,0.00,LWC V1.00 B64,2013-04-15 03:46:00,
2013-04-14 20:51:00,48.1,43.8,29.92,NNW,327,6.0,9.0,85,0.00,,,0.00,LWC V1.00 B64,2013-04-15 03:51:00,
2013-04-14 20:57:00,48.1,44.1,29.92,NNW,340,2.0,6.0,86,0.00,,,0.00,LWC V1.00 B64,2013-04-15 03:57:00,
2013-04-14 21:00:00,48.1,44.1,29.92,NNW,341,5.0,7.0,86,0.00,,,0.00,LWC V1.00 B64,2013-04-15 04:00:00,
2013-04-14 21:01:00,48.1,44.1,29.92,North,355,4.0,7.0,86,0.00,,,0.00,LWC V1.00 B64,2013-04-15 04:01:00,
2013-04-14 21:03:00,48.1,44.4,29.92,NNW,335,4.0,7.0,87,0.00,,,0.00,LWC V1.00 B64,2013-04-15 04:03:00,
2013-04-14 21:07:00,48.1,44.4,29.92,NNW,333,0.0,6.0,87,0.00,,,0.00,LWC V1.00 B64,2013-04-15 04:07:00,
2013-04-14 21:12:00,48.1,44.7,29.92,NNW,342,4.0,7.0,88,0.00,,,0.00,LWC V1.00 B64,2013-04-15 04:12:00,
2013-04-14 21:17:00,48.0,44.6,29.92,North,0,2.0,7.0,88,0.00,,,0.00,LWC V1.00 B64,2013-04-15 04:17:00,
2013-04-14 21:22:00,48.0,44.9,29.92,NNW,342,3.0,3.0,89,0.00,,,0.00,LWC V1.00 B64,2013-04-15 04:22:00,
2013-04-14 21:27:00,47.9,44.8,29.92,North,355,7.0,9.0,89,0.00,,,0.00,LWC V1.00 B64,2013-04-15 04:27:00,
2013-04-14 21:32:00,47.9,44.8,29.92,NNW,343,5.0,9.0,89,0.00,,,0.00,LWC V1.00 B64,2013-04-15 04:32:00,
2013-04-14 21:37:00,47.8,45.0,29.92,NNW,347,0.0,7.0,90,0.00,,,0.00,LWC V1.00 B64,2013-04-15 04:37:00,
2013-04-14 21:42:00,47.8,45.0,29.92,NNW,346,0.0,1.0,90,0.00,,,0.00,LWC V1.00 B64,2013-04-15 04:42:00,
2013-04-14 21:47:00,47.8,45.0,29.92,North,350,3.0,6.0,90,0.00,,,0.00,LWC V1.00 B64,2013-04-15 04:47:00,
2013-04-14 21:53:00,47.7,44.9,29.92,North,350,3.0,6.0,90,0.00,,,0.00,LWC V1.00 B64,2013-04-15 04:53:00,
2013-04-14 21:58:00,47.6,45.1,29.92,North,350,0.0,1.0,91,0.00,,,0.00,LWC V1.00 B64,2013-04-15 04:58:00,
2013-04-14 22:03:00,47.6,45.1,29.92,North,350,5.0,6.0,91,0.00,,,0.00,LWC V1.00 B64,2013-04-15 05:03:00,
2013-04-14 22:08:00,47.6,45.1,29.92,NNW,348,1.0,5.0,91,0.00,,,0.00,LWC V1.00 B64,2013-04-15 05:08:00,
2013-04-14 22:13:00,47.6,45.1,29.92,NNW,348,0.0,3.0,91,0.00,,,0.00,LWC V1.00 B64,2013-04-15 05:13:00,
2013-04-14 22:18:00,47.7,45.2,29.91,North,350,2.0,4.0,91,0.00,,,0.00,LWC V1.00 B64,2013-04-15 05:18:00,
2013-04-14 22:23:00,47.7,44.9,29.91,NNW,345,4.0,6.0,90,0.00,,,0.00,LWC V1.00 B64,2013-04-15 05:23:00,
2013-04-14 22:28:00,47.7,45.2,29.91,North,355,2.0,8.0,91,0.00,,,0.00,LWC V1.00 B64,2013-04-15 05:28:00,
2013-04-14 22:33:00,47.7,45.2,29.91,North,350,6.0,6.0,91,0.00,,,0.00,LWC V1.00 B64,2013-04-15 05:33:00,
2013-04-14 22:38:00,47.7,45.2,29.91,NNW,348,4.0,7.0,91,0.00,,,0.00,LWC V1.00 B64,2013-04-15 05:38:00,
2013-04-14 22:43:00,47.6,45.1,29.91,North,350,3.0,7.0,91,0.00,,,0.00,LWC V1.00 B64,2013-04-15 05:43:00,
2013-04-14 22:48:00,47.4,45.2,29.90,North,355,4.0,5.0,92,0.00,,,0.00,LWC V1.00 B64,2013-04-15 05:48:00,
2013-04-14 22:53:00,47.4,45.2,29.91,North,350,3.0,5.0,92,0.00,,,0.00,LWC V1.00 B64,2013-04-15 05:53:00,
2013-04-14 22:58:00,47.3,45.1,29.91,NNW,342,5.0,7.0,92,0.00,,,0.00,LWC V1.00 B64,2013-04-15 05:58:00,
2013-04-14 23:03:00,47.3,45.1,29.90,NNW,345,2.0,5.0,92,0.00,,,0.00,LWC V1.00 B64,2013-04-15 06:03:00,
2013-04-14 23:08:00,47.1,45.2,29.91,NNW,346,4.0,6.0,93,0.00,,,0.00,LWC V1.00 B64,2013-04-15 06:08:00,
2013-04-14 23:13:00,47.1,45.2,29.90,NNW,343,0.0,4.0,93,0.00,,,0.00,LWC V1.00 B64,2013-04-15 06:13:00,
2013-04-14 23:18:00,47.0,45.1,29.90,NNW,345,4.0,7.0,93,0.00,,,0.00,LWC V1.00 B64,2013-04-15 06:18:00,
2013-04-14 23:23:00,46.9,45.0,29.91,NNW,342,0.0,5.0,93,0.00,,,0.00,LWC V1.00 B64,2013-04-15 06:23:00,
2013-04-14 23:28:00,46.9,45.0,29.91,NNW,345,1.0,6.0,93,0.00,,,0.00,LWC V1.00 B64,2013-04-15 06:28:00,
2013-04-14 23:33:00,46.8,44.9,29.91,NNW,342,4.0,9.0,93,0.00,,,0.00,LWC V1.00 B64,2013-04-15 06:33:00,
2013-04-14 23:38:00,46.8,44.9,29.91,NNW,340,3.0,6.0,93,0.00,,,0.00,LWC V1.00 B64,2013-04-15 06:38:00,
2013-04-14 23:44:00,46.9,45.3,29.91,NNW,338,4.0,6.0,94,0.00,,,0.00,LWC V1.00 B64,2013-04-15 06:44:00,
2013-04-14 23:49:00,46.9,45.3,29.91,NNW,347,7.0,9.0,94,0.00,,,0.00,LWC V1.00 B64,2013-04-15 06:49:00,
2013-04-14 23:54:00,46.8,45.2,29.91,North,355,5.0,7.0,94,0.00,,,0.00,LWC V1.00 B64,2013-04-15 06:54:00,
2013-04-14 23:59:00,46.8,45.2,29.91,North,355,0.0,2.0,94,0.00,,,0.00,LWC V1.00 B64,2013-04-15 06:59:00,